| time (UTC) | temp F | wind direction | speed knots | gust knots | rain 1hr in | rain 24hr in | rain mn in | humidity % | barometer mb |
| 20260502163016 | 83 | 11 | 9.6 | 16.5 | 0.00 | 0.00 | 0.00 | 14 | 1012.0 |
| 20260502123015 | 63 | 112 | 0.0 | 2.6 | 0.00 | 0.00 | 0.00 | 30 | 1010.1 |
| 20260502113015 | 71 | 327 | 0.9 | 5.2 | 0.00 | 0.00 | 0.00 | 18 | 1009.7 |
| 20260502110035 | 69 | 316 | 1.7 | 5.2 | 0.00 | 0.00 | 0.00 | 20 | 1009.7 |
| 20260502103035 | 69 | 279 | 0.9 | 5.2 | 0.00 | 0.00 | 0.00 | 21 | 1009.7 |
| 20260502070017 | 74 | 46 | 0.0 | 3.5 | 0.00 | 0.00 | 0.00 | 20 | 1009.4 |
| 20260502063055 | 80 | 325 | 0.9 | 8.7 | 0.00 | 0.00 | 0.00 | 14 | 1009.2 |
| 20260502060016 | 82 | 14 | 4.3 | 12.2 | 0.00 | 0.00 | 0.00 | 12 | 1008.8 |
| 20260502053015 | 81 | 21 | 4.3 | 12.2 | 0.00 | 0.00 | 0.00 | 14 | 1008.6 |
| 20260502050057 | 81 | 282 | 0.9 | 6.1 | 0.00 | 0.00 | 0.00 | 15 | 1008.4 |
| 20260502043016 | 84 | 328 | 0.9 | 6.1 | 0.00 | 0.00 | 0.00 | 13 | 1008.1 |
| 20260502040016 | 85 | 52 | 1.7 | 7.0 | 0.00 | 0.00 | 0.00 | 12 | 1007.8 |
| 20260502033016 | 86 | 23 | 4.3 | 12.2 | 0.00 | 0.00 | 0.00 | 13 | 1007.4 |
| 20260502030016 | 87 | 21 | 6.1 | 14.8 | 0.00 | 0.00 | 0.00 | 12 | 1007.1 |
| 20260502023017 | 89 | 12 | 7.8 | 14.8 | 0.00 | 0.00 | 0.00 | 12 | 1006.8 |
| 20260502020017 | 90 | 1 | 8.7 | 20.9 | 0.00 | 0.00 | 0.00 | 12 | 1006.4 |
| 20260502013016 | 91 | 351 | 11.3 | 20.9 | 0.00 | 0.00 | 0.00 | 12 | 1006.2 |
| 20260502010016 | 91 | 4 | 9.6 | 18.2 | 0.00 | 0.00 | 0.00 | 12 | 1006.2 |
| 20260502003016 | 91 | 3 | 10.4 | 20.0 | 0.00 | 0.00 | 0.00 | 12 | 1006.2 |
| 20260502000016 | 91 | 9 | 12.2 | 21.7 | 0.00 | 0.00 | 0.00 | 12 | 1006.2 |
| 20260501233037 | 91 | 11 | 11.3 | 21.7 | 0.00 | 0.00 | 0.00 | 12 | 1006.3 |
| 20260501230016 | 91 | 2 | 10.4 | 21.7 | 0.00 | 0.00 | 0.00 | 12 | 1006.6 |
| 20260501223016 | 91 | 5 | 9.6 | 22.6 | 0.00 | 0.00 | 0.00 | 13 | 1007.0 |
| 20260501220037 | 91 | 11 | 11.3 | 22.6 | 0.00 | 0.00 | 0.00 | 13 | 1007.4 |
| 20260501213016 | 90 | 17 | 10.4 | 20.0 | 0.00 | 0.00 | 0.00 | 13 | 1007.9 |
| 20260501210036 | 90 | 13 | 8.7 | 17.4 | 0.00 | 0.00 | 0.00 | 14 | 1008.2 |
| 20260501203015 | 90 | 4 | 9.6 | 17.4 | 0.00 | 0.00 | 0.00 | 13 | 1008.4 |
| 20260501200036 | 89 | 356 | 10.4 | 17.4 | 0.00 | 0.00 | 0.00 | 13 | 1008.6 |
| 20260501193016 | 88 | 355 | 11.3 | 21.7 | 0.00 | 0.00 | 0.00 | 13 | 1008.9 |
| 20260501190036 | 87 | 356 | 11.3 | 21.7 | 0.00 | 0.00 | 0.00 | 14 | 1009.2 |
| 20260501183016 | 86 | 355 | 12.2 | 20.0 | 0.00 | 0.00 | 0.00 | 14 | 1009.5 |
| 20260501180016 | 85 | 8 | 13.0 | 20.9 | 0.00 | 0.00 | 0.00 | 15 | 1009.8 |
| 20260501173015 | 84 | 6 | 13.0 | 24.3 | 0.00 | 0.00 | 0.00 | 15 | 1009.9 |